TimeEST,TemperatureF,Dew PointF,Humidity,Sea Level PressureIn,VisibilityMPH,Wind Direction,Wind SpeedMPH,Gust SpeedMPH,PrecipitationIn,Events,Conditions,WindDirDegrees,DateUTC
12:51 AM,34.0,24.1,67,30.22,10.0,WSW,4.6,-,N/A,,Overcast,240,2013-01-06 05:51:00
1:51 AM,33.1,24.1,70,30.19,10.0,Calm,Calm,-,N/A,,Overcast,0,2013-01-06 06:51:00
2:51 AM,33.1,24.1,70,30.19,10.0,SW,3.5,-,N/A,,Overcast,220,2013-01-06 07:51:00
3:51 AM,33.1,24.1,70,30.18,10.0,SW,3.5,-,N/A,,Overcast,220,2013-01-06 08:51:00
4:51 AM,33.1,25.0,72,30.17,10.0,SW,3.5,-,N/A,,Overcast,220,2013-01-06 09:51:00
5:51 AM,33.1,26.1,75,30.16,10.0,SW,3.5,-,N/A,,Overcast,220,2013-01-06 10:51:00
6:51 AM,33.1,26.1,75,30.17,10.0,SW,5.8,-,N/A,,Overcast,220,2013-01-06 11:51:00
7:36 AM,33.8,26.6,75,30.10,10.0,SW,3.5,-,N/A,,Overcast,230,2013-01-06 12:36:00
7:51 AM,33.1,26.1,75,30.17,10.0,SW,4.6,-,N/A,,Overcast,230,2013-01-06 12:51:00
7:58 AM,33.8,24.8,70,30.10,10.0,SW,4.6,-,N/A,,Overcast,230,2013-01-06 12:58:00
8:51 AM,33.1,26.1,75,30.19,10.0,SW,4.6,-,N/A,,Overcast,230,2013-01-06 13:51:00
9:51 AM,34.0,26.1,73,30.18,10.0,WSW,5.8,-,N/A,,Overcast,240,2013-01-06 14:51:00
10:51 AM,35.1,26.1,70,30.18,10.0,West,12.7,-,N/A,,Overcast,260,2013-01-06 15:51:00
11:51 AM,35.1,27.0,72,30.15,10.0,West,10.4,-,N/A,,Overcast,260,2013-01-06 16:51:00
12:51 PM,36.0,26.1,67,30.12,10.0,WSW,8.1,17.3,N/A,,Overcast,240,2013-01-06 17:51:00
1:23 PM,35.6,26.6,70,30.04,10.0,WSW,9.2,-,N/A,,Overcast,250,2013-01-06 18:23:00
1:42 PM,35.6,26.6,70,30.03,10.0,SW,11.5,-,N/A,,Overcast,230,2013-01-06 18:42:00
1:51 PM,36.0,26.1,67,30.10,10.0,SW,10.4,17.3,N/A,,Overcast,230,2013-01-06 18:51:00
2:51 PM,36.0,25.0,64,30.10,10.0,WSW,5.8,-,N/A,,Overcast,240,2013-01-06 19:51:00
3:51 PM,37.4,24.8,60,30.03,10.0,WSW,9.2,-,N/A,,Overcast,250,2013-01-06 20:51:00
4:51 PM,36.0,26.1,67,30.12,10.0,West,12.7,-,N/A,,Overcast,280,2013-01-06 21:51:00
5:51 PM,35.6,26.6,70,30.07,10.0,West,6.9,-,N/A,,Overcast,260,2013-01-06 22:51:00
6:51 PM,36.0,26.1,67,30.15,10.0,West,6.9,-,N/A,,Overcast,260,2013-01-06 23:51:00
7:51 PM,36.0,26.1,67,30.16,10.0,West,5.8,-,N/A,,Overcast,270,2013-01-07 00:51:00
8:51 PM,36.0,26.1,67,30.17,10.0,West,8.1,-,N/A,,Overcast,280,2013-01-07 01:51:00
9:33 PM,35.6,28.4,75,30.12,10.0,NW,13.8,20.7,0.00,Rain,Light Rain,320,2013-01-07 02:33:00
9:51 PM,34.0,28.0,79,30.22,10.0,WNW,11.5,19.6,0.00,,Overcast,300,2013-01-07 02:51:00
10:51 PM,34.0,25.0,70,30.24,10.0,WNW,13.8,23.0,N/A,,Overcast,300,2013-01-07 03:51:00
11:02 PM,33.8,24.8,70,30.17,10.0,WNW,12.7,19.6,N/A,,Overcast,300,2013-01-07 04:02:00
11:51 PM,33.1,25.0,72,30.26,10.0,WNW,12.7,-,N/A,,Overcast,300,2013-01-07 04:51:00